Regional Weather Roundup
Issued by NWS

Home | Current Version | Previous Version | Text Only | Print | Product List | Glossary On
Versions: 1 2 3 4 5 6 7 8 9 10 11 12 13 14 15 16 17 18 19 20 21 22 23 24 25 26 27 28 29 30 31 32 33 34 35 36 37 38 39 40 41 42 43 44 45 46 47 48 49 50
000
ASUS45 KTFX 012119
RWRMT
MONTANA HOURLY WEATHER ROUNDUP
NATIONAL WEATHER SERVICE GREAT FALLS MT
319 PM MDT WED OCT 1 2014

NOTE: "FAIR" INDICATES FEW OR NO CLOUDS BELOW 12000 FEET WITH NO
SIGNIFICANT WEATHER AND/OR OBSTRUCTIONS TO VISIBILITY.

* THESE STATIONS ARE NOT UNDER NWS QUALITY CONTROL. THEY DO NOT
   REPORT WEATHER SUCH AS PRECIPITATION OR FOG.

MTZ001>007-043-012200-
WEST OF THE DIVIDE
CITY           SKY/WX    TMP DP  RH WIND       PRES   REMARKS
KALISPELL      CLOUDY    55  34  45 W10       30.01S
MISSOULA       PTSUNNY   59  34  39 W18G23    30.07F
BUTTE          PTCLDY    50  25  38 W17G23    30.05S
MULLAN PASS    CLOUDY    36  34  92 VRB6      30.10F WCI  31
* ESSEX        N/A       49  40  71 N2         N/A
* LINCOLN      N/A       49  31  50 SW8G15     N/A
* LOOKOUT PASS N/A       45  34  65 SE10G17    N/A
* POLSON       N/A       56  31  39 S3G13      N/A
* SEELEY LAKE  N/A       52  33  48 W10G21     N/A
* THOMP F APT  SUNNY     45  25  45 NW5G15     N/A
* YAAK HILL    N/A       59  32  36 S2G8       N/A
$$

MTZ008-052>055-012200-
SOUTHWEST MONTANA
CITY           SKY/WX    TMP DP  RH WIND       PRES   REMARKS
BOZEMAN        PTCLDY    52  34  50 SW5       30.02F
DILLON         PTCLDY    54  25  33 CALM      30.04S
W YELLOWSTONE  PTSUNNY   45  25  45 W5        30.05S
* THREE FORKS  PTCLDY    55  32  42 N/A        N/A
* BOULDER HILL N/A       50  22  33 VRB3G13    N/A
* MONIDA PASS  N/A       44  18  35 W14G20     N/A
* RAYNOLDS PAS N/A       42  41  96 NW9G15     N/A
* WHITEHALL    N/A       56  23  28 W8G18      N/A
* WISE RIVER   N/A       49  24  38 W20G29     N/A
$$

MTZ009>010-012-014-046-048-049-054-012200-
EAST SLOPES AND CENTRAL MONTANA
CITY           SKY/WX    TMP DP  RH WIND       PRES   REMARKS
CUT BANK       SUNNY     57  30  36 W26G33    29.87F
GREAT FALLS    PTCLDY    61  32  34 W22G29    29.90F
HELENA         PTCLDY    59  28  31 W20G28    29.99S
MALMSTROM AFB  PTCLDY    59  32  36 SW22G31   29.92F
* CONRAD       SUNNY     61  34  36 SW10G17    N/A
* DEARBORN     N/A       57  31  37 S21G29     N/A
* EAST GLACIER N/A       48  30  50 W27G40     N/A
* MONARCH      N/A       47  26  44 W14G20     N/A
* PENDROY      N/A       55  23  29 W19G27     N/A
* ROGERS PASS  N/A       46  29  52 SE16G27    N/A
* SAINT MARY   N/A       49  32  52 S13G28     N/A
* SWEET GRASS  N/A       56  27  33 W13G24     N/A
$$

MTZ011-013-016-021-035-040-045-047-050-051-012200-
NORTH CENTRAL MONTANA
CITY           SKY/WX    TMP DP  RH WIND       PRES   REMARKS
HAVRE          PTSUNNY   61  36  39 W12       29.85F
LEWISTOWN      CLOUDY    54  34  47 N5        29.93F
* CHINOOK      PTCLDY    63  34  34 W10G16    29.85F
* FORT BENTON  PTCLDY    63  34  34 SW15G20   29.88F
* CHESTER      N/A       58  34  41 SW7G18     N/A
* DENTON       N/A       56  30  37 W12G19     N/A
* JUDITH GAP   N/A       52  28  40 NW7G12     N/A
* LOMA         N/A       60  34  38 SW14G19    N/A
$$

MTZ017>020-022>027-061-062-012200-
NORTHEAST MONTANA
CITY           SKY/WX    TMP DP  RH WIND       PRES   REMARKS
GLASGOW        PTSUNNY   59  41  51 W16G26    29.82S
GLENDIVE       CLOUDY    55  45  69 NW21G28   29.84R
JORDAN         PTCLDY    57  37  47 NW18      29.87R
SIDNEY         PTSUNNY   55  45  69 W15G22    29.81R
WOLF POINT     CLOUDY    59  45  60 W15       29.82R
* BEAVER HILL  N/A       53  45  74 W20G27     N/A
* CIRCLE       N/A       56  47  72 W12G19     N/A
* LINDSAY DVD  N/A       51  44  77 W20G26     N/A
* NAVAJO       N/A       54  44  69 NW23G28    N/A
$$

MTZ028>042-056>058-012200-
SOUTHCENTRAL AND SOUTHEAST MONTANA
CITY           SKY/WX    TMP DP  RH WIND       PRES   REMARKS
BAKER          CLOUDY    52  43  72 W13       29.86S
BILLINGS       PTSUNNY   61  28  29 NW14G24   29.94R
LIVINGSTON     PTSUNNY   55  34  45 W24G31    29.98F
MILES CITY     PTCLDY    59  36  42 NW13      29.86S
* LAUREL APT   PTCLDY    55  36  49 NW8        N/A
* ROUNDUP APT  PTCLDY    57  30  36 NW8        N/A
* ALZADA       N/A       53  40  62 W11        N/A
* HYSHAM       N/A       58  26  29 W11G19     N/A
* LAME DEER    N/A       52  35  52 NW9G17     N/A
* REED POINT   N/A       57  33  40 W17G23     N/A
* ROSCOE HILL  N/A       49  21  33 N11G19     N/A
$$

REGIONAL REPORTS...DAKOTAS
CITY           SKY/WX    TMP DP  RH WIND       PRES   REMARKS
WILLISTON      CLOUDY    57  45  64 NW18      29.76R
DICKINSON      CLOUDY    54  46  74 W13       29.78R
BEACH          N/A       55  46  72 W18G28    29.83R
CROSBY         CLOUDY    55  48  77 NW21G26   29.72R
TIOGA          PTSUNNY   55  52  90 NW22G30   29.74S
WATFORD CITY   CLOUDY    55  46  72 NW17G23   29.75R
BISMARCK       CLOUDY    63  48  58 W16       29.74R
GRAND FORKS    CLOUDY    64  54  70 SW15G21   29.60R
FARGO          CLOUDY    68  50  53 W20G28    29.65R
BUFFALO SD     CLOUDY    52  43  72 NW23      29.80S
RAPID CITY     LGT RAIN  52  46  80 N15       29.87S
$$

REGIONAL REPORTS...WYOMING/IDAHO/WASHINGTON
CITY           SKY/WX    TMP DP  RH WIND       PRES   REMARKS
GILLETTE       CLOUDY    52  37  57 NW17      29.93S
SHERIDAN       PTSUNNY   55  36  49 NW17G22   29.94F
CODY           PTCLDY    52  32  47 CALM      29.99S
YELLOWSTONE LA PTCLDY    34  30  85 VRB6      30.08R WCI  29
SALMON         PTCLDY    54  30  40 NE8       30.08F
MULLAN PASS    CLOUDY    36  34  92 VRB6      30.10S WCI  31
SAND POINT     CLOUDY    59  41  51 S8        30.05F
SPOKANE        PTSUNNY   61  34  36 W14G26    30.08F
$$

REGIONAL REPORTS...ALBERTA
CITY           SKY/WX    TMP DP  RH WIND       PRES   REMARKS
CALGARY        SUNNY     61  21  21 W20       29.76F
LETHBRIDGE     SUNNY     59  32  36 W23G30    29.81F
MEDICINE HAT   PTCLDY    61  36  39 SW10      29.80F
EDMONTON       LGT RAIN  45  36  71 N20G37    29.76S
WATERTON GATE  N/A       52  30  43 SW25G36    N/A
CARDSTON       N/A       55  32  42 W18G29     N/A
MILK RIVER     N/A       63  30  29 W12G21     N/A
$$

REGIONAL REPORTS...SASKATCHEWAN
CITY           SKY/WX    TMP DP  RH WIND       PRES   REMARKS
SWIFT CURRENT  PTCLDY    59  34  39 NW20G29   29.76S
MOOSE JAW      PTSUNNY   57  43  60 NW20G25   29.72R
REGINA         PTSUNNY   55  45  69 NW20G30   29.69R
VAL MARIE      N/A       55  34  45 NW17G23    N/A
ASSINIBOIA     N/A       55  41  59 NW18       N/A
CORONACH       N/A       54  43  67 NW18G26    N/A

$$



USA.gov is the U.S. government's official web portal to all federal, state and local government web resources and services.